Вернуться в каталог

COSMOS 2251 DEB

АктивенLEO
NORAD 35032·DEBRIS·🇷🇺 Russia

Запущен Jun 16, 1993 с Plesetsk Cosmodrome

Loading…

Ближайшие Пролёты (ближайшие 24 часа)

TLE

СвежийSource: Space-Track

Эпоха: Sep 13, 2026, 13:51 UTC

1 35032U 93036AGV 26256.57760205  .00003024  00000-0  60968-3 0  9998
2 35032  73.8506 197.0201 0065068 348.5239 186.2435 14.60624942916848

Отслеживайте COSMOS 2251 DEB в реальном времени с AllMySat

Download on the App Store